Weather History for Monroe, MI

Change the Weather History Date:

Tuesday, September 27, 2011

  Actual Average Record
Temperature  
Mean Temperature 58 °F -  
Max Temperature 69 °F 70 °F 88 °F (1946)
Min Temperature 46 °F 49 °F 34 °F (1957)
Degree Days  
Heating Degree Days 8    
Growing Degree Days 8 (Base 50)    
Moisture  
Dew Point 52 °F    
Average Humidity 85    
Maximum Humidity 100    
Minimum Humidity 56    
Precipitation  
Precipitation 0.00 in - - ()
Sea Level Pressure  
Sea Level Pressure 29.84 in    
Wind  
Wind Speed 3 mph (SSE)    
Max Wind Speed 15 mph    
Max Gust Speed 22 mph    
Visibility 8 miles    
Events Fog , Rain    
Averages and records for this station are not official NWS values.
T = Trace of Precipitation, MM = Missing Value Source: NWS Daily Summary

Daily Weather History Graph

Daily Weather History Graph

Search for Another Location

Airport:

Trip Planner

Search our weather history database for the weather conditions in past years. The results will help you decide how hot, cold, wet, or windy it might be!

Date:

Astronomy

Sep. 27, 2011 Rise Set
Actual Time 7:26 AM EDT 7:22 PM EDT
Civil Twilight 6:58 AM EDT 7:50 PM EDT
Nautical Twilight 6:25 AM EDT 8:22 PM EDT
Astronomical Twilight 5:52 AM EDT 8:55 PM EDT
Moon 7:40 AM EDT (9/27) 7:10 PM EDT (9/27)
Length of Visible Light 12h 52m
Length of Day
11h 56m
New Moon, 0% of the Moon is Illuminated
Sep 27
New Moon
Oct 3
First Quarter
Oct 11
Full
Oct 19
Last Quarter
Oct 26
New

Hourly Weather History & Observations

Time (EDT) Temp. Dew Point Humidity Pressure Visibility Wind Dir Wind Speed Gust Speed Precip Events Conditions
12:14 AM 53.6 °F 53.6 °F 100% 29.83 in 5.0 mi Calm Calm - N/A   Clear
12:34 AM 51.8 °F 51.8 °F 100% 29.83 in 3.0 mi Calm Calm - N/A   Clear
12:54 AM 51.8 °F 51.8 °F 100% 29.83 in 2.0 mi Calm Calm - N/A   Mostly Cloudy
1:14 AM 51.8 °F 51.8 °F 100% 29.83 in 7.0 mi Calm Calm - N/A   Clear
1:34 AM 50.0 °F 50.0 °F 100% 29.83 in 3.0 mi Calm Calm - N/A   Clear
1:54 AM 50.0 °F 50.0 °F 100% 29.83 in 0.8 mi Calm Calm - N/A   Mist
2:15 AM 50.0 °F 50.0 °F 100% 29.83 in 5.0 mi Calm Calm - N/A   Clear
2:35 AM 48.2 °F 48.2 °F 100% 29.84 in 0.5 mi Calm Calm - N/A Fog Fog
2:55 AM 48.2 °F 48.2 °F 100% 29.84 in 0.8 mi Calm Calm - N/A   Mostly Cloudy
3:15 AM 48.2 °F 48.2 °F 100% 29.83 in 1.8 mi Calm Calm - N/A   Mist
3:35 AM 48.2 °F 48.2 °F 100% 29.83 in 10.0 mi Calm Calm - N/A   Clear
3:55 AM 48.2 °F 48.2 °F 100% 29.83 in 2.5 mi Calm Calm - N/A   Clear
4:15 AM 48.2 °F 48.2 °F 100% 29.83 in 2.0 mi Calm Calm - N/A   Clear
4:35 AM 46.4 °F 46.4 °F 100% 29.84 in 4.0 mi Calm Calm - N/A   Clear
4:55 AM 48.2 °F 48.2 °F 100% 29.85 in 7.0 mi Calm Calm - N/A   Clear
5:10 AM 48.2 °F 48.2 °F 100% 29.85 in 7.0 mi Calm Calm - N/A   Clear
5:30 AM 48.2 °F 48.2 °F 100% 29.86 in 5.0 mi Calm Calm - N/A   Clear
5:51 AM 48.2 °F 48.2 °F 100% 29.85 in 10.0 mi Calm Calm - N/A   Clear
6:11 AM 48.2 °F 48.2 °F 100% 29.85 in 10.0 mi Calm Calm - N/A   Clear
6:51 AM 48.2 °F 48.2 °F 100% 29.85 in 4.0 mi Calm Calm - N/A   Clear
7:11 AM 48.2 °F 48.2 °F 100% 29.85 in 7.0 mi Calm Calm - N/A   Clear
7:31 AM 51.8 °F 51.8 °F 100% 29.85 in 10.0 mi Calm Calm - N/A   Clear
7:51 AM 51.8 °F 51.8 °F 100% 29.85 in 7.0 mi Calm Calm - N/A   Clear
8:11 AM 53.6 °F 53.6 °F 100% 29.85 in 7.0 mi Calm Calm - N/A   Clear
8:31 AM 53.6 °F 53.6 °F 100% 29.85 in 7.0 mi Calm Calm - N/A   Clear
8:52 AM 55.4 °F 55.4 °F 100% 29.85 in 7.0 mi Calm Calm - N/A   Clear
9:12 AM 57.2 °F 57.2 °F 100% 29.85 in 10.0 mi SSW 3.5 mph - N/A   Clear
9:32 AM 57.2 °F 57.2 °F 100% 29.85 in 10.0 mi South 4.6 mph - N/A   Clear
9:52 AM 60.8 °F 57.2 °F 88% 29.85 in 10.0 mi South 4.6 mph - N/A   Scattered Clouds
10:12 AM 62.6 °F 55.4 °F 77% 29.85 in 10.0 mi South 5.8 mph - N/A   Scattered Clouds
10:32 AM 62.6 °F 53.6 °F 72% 29.86 in 10.0 mi South 6.9 mph - N/A   Clear
11:12 AM 64.4 °F 53.6 °F 68% 29.85 in 10.0 mi SSE 8.1 mph - N/A   Scattered Clouds
11:32 AM 64.4 °F 53.6 °F 68% 29.85 in 10.0 mi SSE 8.1 mph - N/A   Clear
11:52 AM 64.4 °F 55.4 °F 73% 29.85 in 10.0 mi SSE 10.4 mph - N/A   Clear
12:13 PM 66.2 °F 55.4 °F 68% 29.86 in 10.0 mi South 10.4 mph 16.1 mph N/A   Clear
12:33 PM 66.2 °F 55.4 °F 68% 29.86 in 10.0 mi SSE 12.7 mph 17.3 mph N/A   Scattered Clouds
12:53 PM 66.2 °F 53.6 °F 64% 29.85 in 10.0 mi SSE 10.4 mph - N/A   Scattered Clouds
1:13 PM 66.2 °F 53.6 °F 64% 29.85 in 10.0 mi SSE 12.7 mph 18.4 mph N/A   Clear
1:33 PM 68.0 °F 55.4 °F 64% 29.85 in 10.0 mi SSE 9.2 mph - N/A   Clear
1:53 PM 68.0 °F 53.6 °F 60% 29.84 in 10.0 mi SE 11.5 mph 16.1 mph N/A   Scattered Clouds
2:13 PM 69.8 °F 53.6 °F 56% 29.83 in 10.0 mi South 11.5 mph 21.9 mph N/A   Clear
2:33 PM 68.0 °F 51.8 °F 56% 29.83 in 10.0 mi South 15.0 mph - N/A   Clear
3:14 PM 68.0 °F 51.8 °F 56% 29.82 in 10.0 mi SE 12.7 mph 17.3 mph N/A   Overcast
3:34 PM 66.2 °F 51.8 °F 60% 29.82 in 10.0 mi SSE 10.4 mph - N/A   Overcast
3:54 PM 66.2 °F 51.8 °F 60% 29.81 in 10.0 mi SE 10.4 mph - N/A   Overcast
4:14 PM 66.2 °F 51.8 °F 60% 29.80 in 10.0 mi SE 8.1 mph - N/A   Overcast
4:34 PM 66.2 °F 51.8 °F 60% 29.81 in 10.0 mi SE 6.9 mph - N/A   Overcast
4:54 PM 66.2 °F 51.8 °F 60% 29.81 in 10.0 mi SE 8.1 mph - N/A   Overcast
5:14 PM 64.4 °F 53.6 °F 68% 29.81 in 10.0 mi ESE 12.7 mph 19.6 mph N/A Rain Rain
5:34 PM 60.8 °F 55.4 °F 82% 29.83 in 10.0 mi SE 13.8 mph 21.9 mph N/A Rain Light Rain
5:54 PM 60.8 °F 53.6 °F 77% 29.82 in 10.0 mi SE 11.5 mph 19.6 mph N/A Rain Light Rain
6:14 PM 60.8 °F 53.6 °F 77% 29.82 in 10.0 mi SE 10.4 mph - N/A Rain Rain
6:35 PM 62.6 °F 55.4 °F 77% 29.82 in 10.0 mi SE 8.1 mph - N/A   Overcast
6:55 PM 62.6 °F 55.4 °F 77% 29.82 in 10.0 mi ESE 9.2 mph - N/A   Overcast
7:15 PM 62.6 °F 55.4 °F 77% 29.81 in 10.0 mi SE 9.2 mph - N/A   Mostly Cloudy
7:35 PM 62.6 °F 55.4 °F 77% 29.82 in 10.0 mi SE 8.1 mph - N/A   Mostly Cloudy
7:55 PM 62.6 °F 55.4 °F 77% 29.82 in 10.0 mi SE 8.1 mph - N/A   Overcast
8:15 PM 62.6 °F 55.4 °F 77% 29.82 in 10.0 mi SSE 8.1 mph - N/A   Overcast
8:35 PM 62.6 °F 57.2 °F 82% 29.82 in 10.0 mi SSE 5.8 mph - N/A   Overcast
8:55 PM 62.6 °F 57.2 °F 82% 29.83 in 10.0 mi SE 6.9 mph - N/A   Overcast
9:10 PM 62.6 °F 57.2 °F 82% 29.83 in 10.0 mi SE 6.9 mph - N/A   Overcast
9:31 PM 62.6 °F 57.2 °F 82% 29.82 in 10.0 mi SE 8.1 mph - N/A   Overcast
9:51 PM 64.4 °F 57.2 °F 77% 29.83 in 10.0 mi WSW 5.8 mph - N/A   Overcast
10:11 PM 60.8 °F 55.4 °F 82% 29.83 in 10.0 mi WSW 5.8 mph - N/A   Overcast
10:31 PM 57.2 °F 55.4 °F 94% 29.83 in 10.0 mi Calm Calm - N/A   Overcast
10:51 PM 57.2 °F 57.2 °F 100% 29.82 in 5.0 mi Calm Calm - N/A Rain Rain
11:11 PM 57.2 °F 57.2 °F 100% 29.82 in 7.0 mi Calm Calm - N/A Rain Rain
11:31 PM 57.2 °F 57.2 °F 100% 29.82 in 10.0 mi SSE 3.5 mph - N/A   Overcast
11:51 PM 59.0 °F 59.0 °F 100% 29.82 in 10.0 mi South 8.1 mph - N/A   Overcast